UNK - Orbit

View from above orbital plane
View from above orbital plane
View from above satellite
View from above satellite

Ground track
Ground track

The orbit data is extracted from the following two-line orbital elements,

1 28061U 03050B   13167.48647934 -.00000343  00000-0 -19278-3 0  7033
2 28061 099.5611 332.0787 0147194 098.2710 296.6128 13.97282620491113
Epoch (UTC): 16 June 2013 11:40:31
Eccentricity: 0.0147194
inclination: 99.5611°
perigee height: 796 km
apogee height: 1010 km
right ascension of ascending node: 332.0787°
argument of perigee: 98.2710°
revolutions per day: 13.97282620
mean anomaly at epoch: 296.6128°
orbit number at epoch: 49111

The dashed part of the orbit path shows where the satellite is in the earth's shadow,  

Developed and maintained by Chris Peat, Heavens-Above GmbH. Please read the updated FAQ before sending e-mail. Imprint. DLR